Location: Unspecified
(0.0000°N, 0.0000°E)
Time: 05:03:43
(UTC+00:00)

Vanguard 1 Rocket - Pass Details

Date: 17 December 2017
Orbit: 656 x 4222 km, 34.3° (Epoch: 15 January)

Event Time Altitude Azimuth Distance (km) Brightness Sun altitude
Rises 10:40:09 0° 212° (SSW) 3,429 10.5 60.2°
Reaches altitude 10° 10:43:37 10° 192° (SSW) 2,219 9.8 60.7°
Maximum altitude 10:46:52 18° 148° (SSE) 1,618 9.5 61.2°
Drops below altitude 10° 10:49:55 10° 104° (ESE) 2,062 9.7 61.6°
Sets 10:52:58 0° 83° (E) 3,084 10.3 62.0°
